• In Czech Republic
  • List of Countries
  • For 7 days
  • Water Temperature
  • Satellite Maps
  • Weather Map
  • Weather Widgets
  • user-avatar
    Login

    Hourly Weather Rychowo

    Today, 12 November, Monday

    Time Temperature Precipitation Wind Pressure Humidity
    00:00 +7°C° 0 mm 5 mps 757 mmHg 89%
    01:00 +6°C° 0 mm 4 mps 757 mmHg 92%
    02:00 +6°C° 0.2 mm 4 mps 757 mmHg 91%
    03:00 +7°C° 0.2 mm 5 mps 757 mmHg 90%
    04:00 +7°C° 0.2 mm 5 mps 758 mmHg 89%
    05:00 +7°C° 0.1 mm 5 mps 758 mmHg 90%
    06:00 +7°C° 0.1 mm 4 mps 758 mmHg 90%
    07:00 +6°C° 0 mm 4 mps 758 mmHg 93%
    08:00 +7°C° 0 mm 4 mps 758 mmHg 90%
    09:00 +8°C° 0 mm 4 mps 759 mmHg 86%
    10:00 +10°C° 0 mm 4 mps 759 mmHg 82%
    11:00 +10°C° 0 mm 4 mps 759 mmHg 80%
    12:00 +11°C° 0 mm 4 mps 759 mmHg 77%
    13:00 +12°C° 0 mm 4 mps 759 mmHg 75%
    14:00 +12°C° 0 mm 5 mps 758 mmHg 74%
    15:00 +12°C° 0 mm 5 mps 758 mmHg 73%
    16:00 +12°C° 0 mm 5 mps 758 mmHg 72%
    17:00 +12°C° 0 mm 5 mps 758 mmHg 72%
    18:00 +11°C° 0 mm 6 mps 758 mmHg 72%
    19:00 +10°C° 0 mm 6 mps 758 mmHg 73%
    20:00 +10°C° 0 mm 6 mps 758 mmHg 75%
    21:00 +10°C° 0 mm 6 mps 758 mmHg 77%
    22:00 +10°C° 0 mm 6 mps 758 mmHg 79%
    23:00 +9°C° 0 mm 5 mps 758 mmHg 80%

    Tomorrow, 13 November, Tuesday

    Time Temperature Precipitation Wind Pressure Humidity
    00:00 +9°C° 0 mm 5 mps 758 mmHg 80%
    01:00 +9°C° 0 mm 5 mps 758 mmHg 80%
    02:00 +9°C° 0 mm 5 mps 759 mmHg 81%
    03:00 +9°C° 0 mm 5 mps 759 mmHg 82%
    04:00 +8°C° 0 mm 4 mps 759 mmHg 83%
    05:00 +8°C° 0.1 mm 4 mps 759 mmHg 85%
    06:00 +9°C° 0.1 mm 3 mps 759 mmHg 87%
    07:00 +9°C° 0.1 mm 3 mps 759 mmHg 89%
    08:00 +9°C° 0.5 mm 2 mps 759 mmHg 90%
    09:00 +9°C° 0.5 mm 2 mps 759 mmHg 91%
    10:00 +9°C° 0.5 mm 2 mps 760 mmHg 92%
    11:00 +9°C° 0.9 mm 3 mps 760 mmHg 93%
    12:00 +9°C° 0.9 mm 3 mps 760 mmHg 93%
    13:00 +8°C° 0.9 mm 4 mps 760 mmHg 94%
    14:00 +8°C° 0.6 mm 4 mps 760 mmHg 92%
    15:00 +8°C° 0.6 mm 4 mps 760 mmHg 91%
    16:00 +8°C° 0.6 mm 5 mps 760 mmHg 89%
    17:00 +8°C° 0.1 mm 5 mps 761 mmHg 89%
    18:00 +8°C° 0.1 mm 5 mps 761 mmHg 89%
    19:00 +8°C° 0.1 mm 6 mps 761 mmHg 89%
    20:00 +8°C° 0 mm 6 mps 761 mmHg 88%
    21:00 +7°C° 0 mm 6 mps 761 mmHg 88%
    22:00 +7°C° 0 mm 6 mps 761 mmHg 87%
    23:00 +6°C° 0 mm 7 mps 762 mmHg 87%

    Day after tomorrow, 14 November, Wednesday

    Time Temperature Precipitation Wind Pressure Humidity
    00:00 +6°C° 0 mm 7 mps 762 mmHg 87%
    01:00 +6°C° 0 mm 7 mps 762 mmHg 87%
    02:00 +6°C° 0.1 mm 7 mps 762 mmHg 87%
    03:00 +6°C° 0.1 mm 7 mps 762 mmHg 87%
    04:00 +6°C° 0.1 mm 7 mps 762 mmHg 86%
    05:00 +6°C° 0.1 mm 7 mps 763 mmHg 86%
    06:00 +6°C° 0.1 mm 7 mps 763 mmHg 87%
    07:00 +8°C° 0.1 mm 6 mps 763 mmHg 87%
    08:00 +8°C° 0.1 mm 6 mps 764 mmHg 86%
    09:00 +8°C° 0.1 mm 6 mps 764 mmHg 85%
    10:00 +8°C° 0.1 mm 6 mps 765 mmHg 85%
    11:00 +8°C° 0 mm 5 mps 765 mmHg 84%
    12:00 +9°C° 0 mm 5 mps 765 mmHg 83%
    13:00 +9°C° 0 mm 5 mps 766 mmHg 82%
    14:00 +10°C° 0 mm 4 mps 766 mmHg 83%
    15:00 +8°C° 0 mm 4 mps 766 mmHg 85%
    16:00 +9°C° 0 mm 3 mps 766 mmHg 86%
    17:00 +9°C° 0 mm 3 mps 767 mmHg 88%
    18:00 +8°C° 0 mm 3 mps 767 mmHg 90%
    19:00 +8°C° 0 mm 2 mps 767 mmHg 92%
    20:00 +7°C° 0 mm 2 mps 767 mmHg 93%
    21:00 +7°C° 0 mm 2 mps 768 mmHg 93%
    22:00 +6°C° 0 mm 2 mps 768 mmHg 94%
    23:00 +6°C° 0 mm 2 mps 768 mmHg 94%

    15 November, Thursday

    Time Temperature Precipitation Wind Pressure Humidity
    00:00 +6°C° 0 mm 2 mps 768 mmHg 94%
    01:00 +6°C° 0 mm 2 mps 768 mmHg 94%
    02:00 +6°C° 0 mm 2 mps 768 mmHg 94%
    03:00 +5°C° 0 mm 2 mps 768 mmHg 94%
    04:00 +5°C° 0 mm 2 mps 768 mmHg 94%
    05:00 +5°C° 0 mm 2 mps 768 mmHg 93%
    06:00 +5°C° 0 mm 2 mps 768 mmHg 93%
    07:00 +5°C° 0 mm 2 mps 769 mmHg 93%
    08:00 +6°C° 0 mm 2 mps 769 mmHg 90%
    09:00 +7°C° 0 mm 2 mps 769 mmHg 87%
    10:00 +7°C° 0 mm 2 mps 769 mmHg 84%
    11:00 +8°C° 0 mm 2 mps 769 mmHg 81%
    12:00 +9°C° 0 mm 2 mps 769 mmHg 77%
    13:00 +10°C° 0 mm 2 mps 769 mmHg 74%
    14:00 +9°C° 0 mm 2 mps 769 mmHg 78%
    15:00 +8°C° 0 mm 2 mps 770 mmHg 82%
    16:00 +7°C° 0 mm 2 mps 770 mmHg 86%
    17:00 +7°C° 0 mm 2 mps 770 mmHg 88%
    18:00 +7°C° 0 mm 2 mps 770 mmHg 89%
    19:00 +5°C° 0 mm 3 mps 770 mmHg 91%
    20:00 +5°C° 0 mm 3 mps 770 mmHg 91%
    21:00 +5°C° 0 mm 3 mps 771 mmHg 91%
    22:00 +4°C° 0 mm 3 mps 771 mmHg 91%
    23:00 +4°C° 0 mm 3 mps 771 mmHg 91%

    16 November, Friday

    Time Temperature Precipitation Wind Pressure Humidity
    00:00 +4°C° 0 mm 3 mps 771 mmHg 91%
    01:00 +4°C° 0 mm 3 mps 771 mmHg 91%
    02:00 +3°C° 0 mm 3 mps 771 mmHg 91%
    03:00 +3°C° 0 mm 3 mps 771 mmHg 91%
    04:00 +3°C° 0 mm 3 mps 771 mmHg 91%
    05:00 +3°C° 0 mm 3 mps 772 mmHg 91%
    06:00 +3°C° 0 mm 3 mps 772 mmHg 92%
    07:00 +3°C° 0 mm 3 mps 772 mmHg 92%
    08:00 +4°C° 0 mm 3 mps 772 mmHg 88%
    09:00 +4°C° 0 mm 4 mps 773 mmHg 84%
    10:00 +5°C° 0 mm 4 mps 773 mmHg 81%
    11:00 +6°C° 0 mm 4 mps 773 mmHg 76%
    12:00 +7°C° 0 mm 4 mps 773 mmHg 72%
    13:00 +7°C° 0 mm 4 mps 773 mmHg 68%
    14:00 +8°C° 0 mm 3 mps 773 mmHg 72%
    15:00 +7°C° 0 mm 3 mps 773 mmHg 75%
    16:00 +5°C° 0 mm 3 mps 773 mmHg 79%
    17:00 +5°C° 0 mm 3 mps 774 mmHg 81%
    18:00 +4°C° 0 mm 3 mps 774 mmHg 84%
    19:00 +4°C° 0 mm 3 mps 774 mmHg 86%
    20:00 +3°C° 0 mm 3 mps 774 mmHg 87%
    21:00 +3°C° 0 mm 3 mps 775 mmHg 89%
    22:00 +3°C° 0 mm 3 mps 775 mmHg 90%
    23:00 +3°C° 0 mm 3 mps 775 mmHg 91%

    17 November, Saturday

    Time Temperature Precipitation Wind Pressure Humidity
    00:00 +2°C° 0 mm 3 mps 775 mmHg 91%
    01:00 +2°C° 0 mm 3 mps 775 mmHg 92%
    02:00 +3°C° 0 mm 2 mps 775 mmHg 92%
    03:00 +3°C° 0 mm 2 mps 775 mmHg 91%
    04:00 +2°C° 0 mm 2 mps 775 mmHg 91%
    05:00 +2°C° 0 mm 2 mps 775 mmHg 91%
    06:00 +2°C° 0 mm 2 mps 775 mmHg 91%
    07:00 +1°C° 0 mm 3 mps 775 mmHg 91%
    08:00 +2°C° 0 mm 3 mps 776 mmHg 87%
    09:00 +3°C° 0 mm 3 mps 776 mmHg 82%
    10:00 +3°C° 0 mm 3 mps 776 mmHg 78%
    11:00 +5°C° 0 mm 2 mps 776 mmHg 74%
    12:00 +6°C° 0 mm 2 mps 776 mmHg 71%
    13:00 +7°C° 0 mm 2 mps 776 mmHg 67%
    14:00 +6°C° 0 mm 2 mps 776 mmHg 70%
    15:00 +5°C° 0 mm 2 mps 776 mmHg 74%
    16:00 +5°C° 0 mm 2 mps 775 mmHg 77%
    17:00 +4°C° 0 mm 2 mps 775 mmHg 79%
    18:00 +4°C° 0 mm 2 mps 775 mmHg 81%
    19:00 +3°C° 0 mm 2 mps 775 mmHg 83%
    20:00 +4°C° 0 mm 1 mps 775 mmHg 83%
    21:00 +4°C° 0 mm 1 mps 775 mmHg 84%
    22:00 +4°C° 0 mm 1 mps 775 mmHg 85%
    23:00 +3°C° 0 mm 1 mps 775 mmHg 86%
    Show more